SIS225 EDDN-EDXW

Flight info

Callsign SIS225
Flight time 0h 57m
Altitude 30000
Route ERETO1G ERETO DCT LONLI M726 LASTO/N0507F400 DCT ZUCKA DCT ELSOB Y348 OMWEG DCT BADOS DCT OLDIP
Aircraft C750/M-SBDE3FGHRWXY/S

Departure

Time 2026-04-23 17:11
Airport Nuremberg Airport (EDDN)

Arrival

Time 2026-04-23 18:08
Airport Westerland Sylt Airport (EDXW)
Time Latitude Longitude Altitude Speed Heading
2026-04-23 16:49 49.49563 11.06945 1023 ft 0 kts
2026-04-23 16:49 49.49544 11.07137 1023 ft 0 kts
2026-04-23 17:06 49.49570 11.07144 1023 ft 9 kts 12°
2026-04-23 17:07 49.49603 11.07211 1022 ft 12 kts 29°
2026-04-23 17:07 49.49631 11.07306 1022 ft 12 kts 99°
2026-04-23 17:07 49.49616 11.07454 1022 ft 18 kts 98°
2026-04-23 17:07 49.49597 11.07651 1023 ft 18 kts 98°
2026-04-23 17:08 49.49579 11.07834 1024 ft 17 kts 99°
2026-04-23 17:08 49.49563 11.08001 1024 ft 16 kts 98°
2026-04-23 17:08 49.49544 11.08182 1022 ft 17 kts 98°
2026-04-23 17:08 49.49539 11.08333 1026 ft 9 kts 50°
2026-04-23 17:09 49.49595 11.08361 1029 ft 10 kts 22°
2026-04-23 17:09 49.49628 11.08414 1030 ft 5 kts 52°
2026-04-23 17:09 49.49646 11.08451 1031 ft 4 kts 53°
2026-04-23 17:09 49.49676 11.08513 1032 ft 7 kts 53°
2026-04-23 17:10 49.49708 11.08556 1032 ft 5 kts 22°
2026-04-23 17:10 49.49755 11.08575 1033 ft 9 kts 13°
2026-04-23 17:10 49.49798 11.08524 1034 ft 17 kts 279°
2026-04-23 17:10 49.49874 11.07748 1026 ft 127 kts 278°
2026-04-23 17:11 49.50013 11.06271 1493 ft 153 kts 280°
2026-04-23 17:11 49.50180 11.04583 2387 ft 163 kts 281°
2026-04-23 17:11 49.50363 11.02804 3313 ft 177 kts 282°
2026-04-23 17:11 49.50556 11.00847 4258 ft 191 kts 282°
2026-04-23 17:12 49.50757 10.98772 5286 ft 200 kts 282°
2026-04-23 17:12 49.50964 10.96637 6340 ft 206 kts 283°
2026-04-23 17:12 49.51433 10.94562 7281 ft 208 kts 307°
2026-04-23 17:12 49.52506 10.93066 8303 ft 212 kts 332°
2026-04-23 17:13 49.53941 10.92503 9429 ft 216 kts 357°
2026-04-23 17:13 49.55432 10.92544 10631 ft 212 kts
2026-04-23 17:13 49.56882 10.92586 11730 ft 208 kts
2026-04-23 17:13 49.58327 10.92621 12807 ft 205 kts
2026-04-23 17:14 49.59746 10.92659 13867 ft 203 kts
2026-04-23 17:14 49.61231 10.92701 14354 ft 226 kts
2026-04-23 17:14 49.62904 10.92750 14637 ft 254 kts
2026-04-23 17:14 49.64742 10.92796 14882 ft 281 kts
2026-04-23 17:15 49.66797 10.92847 15059 ft 307 kts
2026-04-23 17:15 49.69014 10.93057 15096 ft 333 kts 11°
2026-04-23 17:15 49.71236 10.94413 15276 ft 351 kts 26°
2026-04-23 17:15 49.73417 10.96113 16070 ft 350 kts 25°
2026-04-23 17:16 49.75625 10.97767 16762 ft 355 kts 25°
2026-04-23 17:16 49.77849 10.99476 17466 ft 359 kts 26°
2026-04-23 17:16 49.80084 11.01237 18197 ft 363 kts 26°
2026-04-23 17:16 49.82353 11.03009 18893 ft 367 kts 26°
2026-04-23 17:17 49.84639 11.04776 19608 ft 369 kts 26°
2026-04-23 17:17 49.86920 11.06547 20298 ft 372 kts 27°
2026-04-23 17:17 49.89245 11.08363 21033 ft 375 kts 27°
2026-04-23 17:17 49.91592 11.10197 21714 ft 379 kts 27°
2026-04-23 17:18 49.96358 11.13919 23113 ft 386 kts 27°
2026-04-23 17:18 49.98774 11.15811 23794 ft 390 kts 28°
2026-04-23 17:18 50.01212 11.17721 24361 ft 393 kts 28°
2026-04-23 17:19 50.03634 11.19619 24912 ft 397 kts 28°
2026-04-23 17:19 50.06214 11.21244 25413 ft 403 kts 20°
2026-04-23 17:19 50.08961 11.22274 25982 ft 408 kts 12°
2026-04-23 17:19 50.11813 11.22671 26519 ft 415 kts
2026-04-23 17:20 50.14719 11.22671 27043 ft 419 kts
2026-04-23 17:20 50.20609 11.22726 28102 ft 427 kts
2026-04-23 17:21 50.26561 11.22752 29157 ft 434 kts
2026-04-23 17:21 50.29602 11.22768 29658 ft 438 kts
2026-04-23 17:21 50.35761 11.22794 30582 ft 447 kts
2026-04-23 17:22 50.38884 11.22382 30973 ft 452 kts 357°
2026-04-23 17:22 50.45132 11.21439 32230 ft 448 kts 358°
2026-04-23 17:23 50.51323 11.20513 33559 ft 445 kts 358°
2026-04-23 17:23 50.54358 11.20039 34203 ft 444 kts 358°
2026-04-23 17:23 50.60517 11.19121 35284 ft 443 kts 358°
2026-04-23 17:24 50.63586 11.18651 35899 ft 441 kts 358°
2026-04-23 17:24 50.66636 11.18182 36503 ft 439 kts 358°
2026-04-23 17:24 50.72711 11.17261 37675 ft 436 kts 358°
2026-04-23 17:25 50.78737 11.16337 38837 ft 433 kts 358°
2026-04-23 17:25 50.81731 11.15879 39288 ft 432 kts 357°
2026-04-23 17:26 50.87717 11.14961 40085 ft 429 kts 357°
2026-04-23 17:26 50.93725 11.14039 40232 ft 446 kts 357°
2026-04-23 17:27 51.00046 11.13062 40247 ft 465 kts 356°
2026-04-23 17:27 51.03305 11.12558 40250 ft 474 kts 356°
2026-04-23 17:27 51.09984 11.11523 40254 ft 491 kts 356°
2026-04-23 17:28 51.16798 11.09629 40243 ft 502 kts 348°
2026-04-23 17:28 51.23570 11.06871 40252 ft 503 kts 348°
2026-04-23 17:29 51.30346 11.04308 40252 ft 503 kts 348°
2026-04-23 17:30 51.39409 11.00708 40236 ft 505 kts 348°
2026-04-23 17:30 51.50812 10.96222 40237 ft 505 kts 348°
2026-04-23 17:31 51.57640 10.93534 40240 ft 503 kts 348°
2026-04-23 17:31 51.64437 10.90832 40240 ft 504 kts 348°
2026-04-23 17:32 51.71074 10.87387 40243 ft 505 kts 340°
2026-04-23 17:32 51.77595 10.83123 40250 ft 505 kts 340°
2026-04-23 17:33 51.84142 10.79021 40251 ft 504 kts 340°
2026-04-23 17:33 51.90568 10.74861 40241 ft 506 kts 340°
2026-04-23 17:34 51.97145 10.70669 40245 ft 506 kts 340°
2026-04-23 17:35 52.06759 10.64449 40242 ft 488 kts 340°
2026-04-23 17:35 52.16354 10.58247 40241 ft 502 kts 340°
2026-04-23 17:36 52.22883 10.54001 40249 ft 506 kts 340°
2026-04-23 17:36 52.29403 10.49753 40242 ft 504 kts 340°
2026-04-23 17:37 52.35937 10.45476 40234 ft 505 kts 339°
2026-04-23 17:38 52.45706 10.39058 40238 ft 507 kts 339°
2026-04-23 17:38 52.52270 10.34733 40245 ft 507 kts 339°
2026-04-23 17:39 52.58800 10.30407 40254 ft 504 kts 339°
2026-04-23 17:39 52.65322 10.26084 40254 ft 507 kts 339°
2026-04-23 17:40 52.71832 10.21745 40258 ft 502 kts 339°
2026-04-23 17:40 52.78298 10.17428 40255 ft 506 kts 339°
2026-04-23 17:41 52.84122 10.13525 40258 ft 503 kts 339°
2026-04-23 17:41 52.93767 10.07036 39606 ft 481 kts 338°
2026-04-23 17:42 52.99752 10.02991 38335 ft 447 kts 338°
2026-04-23 17:42 53.02540 10.01005 37762 ft 437 kts 336°
2026-04-23 17:42 53.05267 9.98793 37200 ft 436 kts 334°
2026-04-23 17:43 53.08009 9.96510 36684 ft 441 kts 335°
2026-04-23 17:43 53.10793 9.94335 36198 ft 443 kts 336°
2026-04-23 17:43 53.13589 9.92204 35737 ft 442 kts 336°
2026-04-23 17:43 53.16394 9.89987 35288 ft 448 kts 335°
2026-04-23 17:44 53.19199 9.87720 34859 ft 451 kts 335°
2026-04-23 17:44 53.22034 9.85463 34443 ft 450 kts 336°
2026-04-23 17:44 53.27701 9.80997 33541 ft 449 kts 336°
2026-04-23 17:45 53.30533 9.78726 33095 ft 453 kts 335°
2026-04-23 17:45 53.36216 9.74190 33166 ft 452 kts 335°
2026-04-23 17:46 53.44715 9.67376 32127 ft 455 kts 335°
2026-04-23 17:46 53.47571 9.65080 31527 ft 456 kts 335°
2026-04-23 17:46 53.50448 9.62770 30924 ft 460 kts 336°
2026-04-23 17:47 53.53284 9.60482 30322 ft 456 kts 336°
2026-04-23 17:47 53.56117 9.58189 29682 ft 446 kts 336°
2026-04-23 17:47 53.61690 9.53684 28515 ft 441 kts 335°
2026-04-23 17:48 53.64442 9.51453 27937 ft 434 kts 335°
2026-04-23 17:48 53.67144 9.49255 27364 ft 428 kts 335°
2026-04-23 17:48 53.68916 9.47814 26990 ft 426 kts 335°
2026-04-23 17:48 53.71568 9.45657 26432 ft 419 kts 335°
2026-04-23 17:49 53.74205 9.43510 25880 ft 420 kts 335°
2026-04-23 17:49 53.76816 9.41378 25334 ft 419 kts 334°
2026-04-23 17:49 53.79446 9.39227 24777 ft 415 kts 334°
2026-04-23 17:49 53.82011 9.37125 24236 ft 409 kts 334°
2026-04-23 17:50 53.84560 9.35037 23665 ft 401 kts 334°
2026-04-23 17:50 53.89550 9.30940 22593 ft 397 kts 334°
2026-04-23 17:50 53.92046 9.28885 22068 ft 398 kts 334°
2026-04-23 17:51 53.94513 9.26851 21551 ft 389 kts 334°
2026-04-23 17:51 53.96954 9.24837 21037 ft 387 kts 334°
2026-04-23 17:51 54.01729 9.20891 20019 ft 383 kts 334°
2026-04-23 17:52 54.04115 9.18913 19522 ft 383 kts 334°
2026-04-23 17:52 54.08842 9.14988 18271 ft 376 kts 334°
2026-04-23 17:52 54.11155 9.13064 17723 ft 365 kts 334°
2026-04-23 17:53 54.15715 9.09270 16784 ft 361 kts 334°
2026-04-23 17:53 54.17970 9.07387 16300 ft 361 kts 334°
2026-04-23 17:53 54.20214 9.05512 15832 ft 357 kts 334°
2026-04-23 17:54 54.22431 9.03657 15347 ft 353 kts 335°
2026-04-23 17:54 54.24612 9.01829 14887 ft 347 kts 335°
2026-04-23 17:54 54.28905 8.98229 13969 ft 341 kts 335°
2026-04-23 17:55 54.33163 8.94648 13057 ft 337 kts 335°
2026-04-23 17:55 54.35258 8.92882 12619 ft 336 kts 335°
2026-04-23 17:55 54.37338 8.91127 12171 ft 330 kts 334°
2026-04-23 17:56 54.39399 8.89386 11735 ft 330 kts 334°
2026-04-23 17:56 54.43410 8.85990 10874 ft 301 kts 334°
2026-04-23 17:56 54.45196 8.84474 10490 ft 279 kts 334°
2026-04-23 17:57 54.46884 8.83044 10127 ft 264 kts 334°
2026-04-23 17:57 54.48521 8.81656 9762 ft 260 kts 334°
2026-04-23 17:57 54.51749 8.78912 9096 ft 258 kts 334°
2026-04-23 17:58 54.53359 8.77542 8756 ft 257 kts 334°
2026-04-23 17:58 54.54956 8.76181 8410 ft 256 kts 334°
2026-04-23 17:58 54.56554 8.74820 8078 ft 254 kts 334°
2026-04-23 17:58 54.58136 8.73469 7737 ft 252 kts 334°
2026-04-23 17:59 54.59725 8.72303 7408 ft 250 kts 338°
2026-04-23 17:59 54.61288 8.70976 7035 ft 250 kts 329°
2026-04-23 17:59 54.62714 8.69289 6716 ft 248 kts 325°
2026-04-23 17:59 54.64112 8.67565 6383 ft 246 kts 325°
2026-04-23 18:00 54.65502 8.65851 6041 ft 245 kts 325°
2026-04-23 18:00 54.66880 8.64152 5709 ft 242 kts 326°
2026-04-23 18:00 54.68241 8.62473 5390 ft 239 kts 326°
2026-04-23 18:00 54.69591 8.60808 5073 ft 237 kts 326°
2026-04-23 18:01 54.70926 8.59160 4762 ft 231 kts 326°
2026-04-23 18:01 54.72191 8.57602 4457 ft 216 kts 326°
2026-04-23 18:01 54.73385 8.56150 4173 ft 204 kts 326°
2026-04-23 18:01 54.74509 8.54763 3908 ft 199 kts 326°
2026-04-23 18:02 54.75624 8.53397 3655 ft 190 kts 327°
2026-04-23 18:02 54.76651 8.52133 3393 ft 173 kts 326°
2026-04-23 18:02 54.77605 8.50963 3161 ft 165 kts 327°
2026-04-23 18:02 54.78537 8.49819 2946 ft 163 kts 327°
2026-04-23 18:03 54.79458 8.48680 2730 ft 162 kts 327°
2026-04-23 18:03 54.80375 8.47559 2523 ft 161 kts 327°
2026-04-23 18:03 54.81284 8.46436 2306 ft 159 kts 327°
2026-04-23 18:03 54.82159 8.45355 2095 ft 159 kts 328°
2026-04-23 18:04 54.83050 8.44266 1877 ft 150 kts 327°
2026-04-23 18:04 54.83790 8.43342 1665 ft 116 kts 327°
2026-04-23 18:04 54.84378 8.42624 1494 ft 92 kts 327°
2026-04-23 18:04 54.84879 8.42003 1386 ft 90 kts 327°
2026-04-23 18:05 54.85390 8.41374 1271 ft 91 kts 327°
2026-04-23 18:05 54.85904 8.40738 1149 ft 91 kts 326°
2026-04-23 18:05 54.86421 8.40102 1027 ft 93 kts 325°
2026-04-23 18:05 54.86950 8.39466 894 ft 92 kts 324°
2026-04-23 18:06 54.87480 8.38820 752 ft 94 kts 323°
2026-04-23 18:06 54.88012 8.38151 655 ft 92 kts 322°
2026-04-23 18:06 54.88539 8.37500 509 ft 92 kts 323°
2026-04-23 18:06 54.89060 8.36859 367 ft 93 kts 323°
2026-04-23 18:07 54.89581 8.36208 263 ft 96 kts 323°
2026-04-23 18:07 54.90119 8.35540 150 ft 94 kts 323°
2026-04-23 18:07 54.90627 8.34911 57 ft 81 kts 323°
2026-04-23 18:07 54.91031 8.34410 57 ft 63 kts 325°
2026-04-23 18:08 54.91249 8.34142 57 ft 51 kts 324°
2026-04-23 18:08 54.91512 8.33816 55 ft 29 kts 324°
2026-04-23 18:08 54.91669 8.33623 56 ft 26 kts 325°
2026-04-23 18:08 54.91807 8.33455 56 ft 23 kts 325°
2026-04-23 18:09 54.91914 8.33356 55 ft 12 kts 14°
2026-04-23 18:09 54.91956 8.33467 53 ft 12 kts 84°
2026-04-23 18:09 54.91958 8.33529 55 ft 0 kts 85°
2026-04-23 18:09 54.91958 8.33530 55 ft 0 kts 85°
2026-04-23 18:10 54.91961 8.33582 55 ft 6 kts 84°
2026-04-23 18:10 54.91978 8.33669 53 ft 9 kts 64°
2026-04-23 18:10 54.91994 8.33719 53 ft 0 kts 61°
2026-04-23 18:10 54.91998 8.33732 55 ft 5 kts 60°
2026-04-23 18:11 54.92016 8.33789 55 ft 6 kts 62°
2026-04-23 18:11 54.92025 8.33879 55 ft 8 kts 86°
2026-04-23 18:11 54.92029 8.33959 53 ft 5 kts 83°
2026-04-23 18:11 54.92032 8.34003 55 ft 0 kts 88°